Flag for Germany Weather past 2 weeks in Hamm, North Rhine-Westphalia, Germany

Now
77 °F

Sunny.


Feels Like: 78 °F
Forecast: 64 / 85 °F
Wind: 3 mph from North

Location: Dortmund / Wickede

Current Time: Aug 1, 2014 at 6:21:48 PM

Latest Report: Aug 1, 2014 at 5:50 PM


Visibility: 10 mi

Pressure: 29.83 "Hg

Humidity: 42%

Dew point: 52 °F

Location of HammLocation

Historic Weather in Hamm — Graph

°F

Hamm temperature yesterday

Maximum temperature yesterday: 79 °F (at 6:20 PM)
Minimum temperature yesterday: 54 °F (at 5:50 AM)
Average temperature yesterday: 69 °F

Past Weeks' High & Low Weather Summary

 TemperatureHumidityPressure
High90 °F (Jul 19, 1:20 PM)100% (Jul 21, 12:50 PM)30.15 "Hg (Jul 21, 12:50 PM)
Low54 °F (Jul 31, 5:50 AM)22% (Jul 19, 2:50 PM)29.77 "Hg (Jul 20, 5:20 AM)
Average72 °F65%29.94 "Hg
* Reported Jul 17 5:20 PM — Aug 1 5:20 PM, Hamm, Weather by CustomWeather, © 2014

Note: Actual official high and low records may vary slightly from our data, if they occured in-between our weather recording intervals... More about our weather records

Advertising

Hamm weather history for previous 24 hours

 ConditionsComfort  
Time TempWeatherWind HumidityBarometerVisibility
5:20 PM
Aug 1
81 °FSunny.5 mph34%29.83 "Hg10 mi
4:50 PM81 °FPassing clouds.5 mph37%29.83 "HgN/A
4:20 PM77 °FPassing clouds.7 mph44%29.83 "HgN/A
3:50 PM79 °FPassing clouds.5 mph42%29.86 "HgN/A
3:20 PM81 °FPassing clouds.7 mph42%29.86 "HgN/A
2:50 PM81 °FPassing clouds.6 mph42%29.86 "HgN/A
2:20 PM77 °FPassing clouds.7 mph47%29.86 "HgN/A
1:50 PM79 °FPassing clouds.7 mph45%29.86 "HgN/A
1:20 PM79 °FPassing clouds.8 mph39%29.86 "HgN/A
12:50 PM79 °FPassing clouds.10 mph45%29.86 "HgN/A
12:20 PM77 °FSunny.8 mph47%29.86 "Hg10 mi
11:50 AM77 °FSunny.9 mph47%29.89 "Hg10 mi
11:20 AM75 °FPassing clouds.8 mph47%29.89 "HgN/A
10:50 AM75 °FPassing clouds.9 mph47%29.89 "HgN/A
10:20 AM73 °FPassing clouds.8 mph57%29.89 "HgN/A
9:50 AM72 °FSunny.7 mph57%29.89 "Hg10 mi
9:20 AM68 °FPassing clouds.8 mph64%29.89 "HgN/A
8:50 AM66 °FSunny.8 mph64%29.89 "Hg10 mi
8:20 AM66 °FSunny.6 mph64%29.89 "Hg10 mi
7:50 AM64 °FSunny.9 mph68%29.89 "Hg10 mi
7:20 AM63 °FSunny.8 mph73%29.89 "Hg10 mi
6:50 AM63 °FClear.7 mph73%29.89 "Hg10 mi
6:20 AM61 °FClear.9 mph77%29.89 "Hg10 mi
5:50 AM61 °FClear.7 mph77%29.89 "Hg10 mi
5:20 AM61 °FClear.7 mph77%29.89 "Hg10 mi
10:50 PM
Jul 31
66 °FPassing clouds.6 mph64%29.95 "HgN/A
10:20 PM68 °FClear.6 mph60%29.95 "Hg10 mi
9:50 PM68 °FSunny.3 mph60%29.95 "Hg10 mi
9:20 PM70 °FSunny.3 mph57%29.95 "Hg10 mi
8:50 PM70 °FSunny.3 mph57%29.95 "Hg10 mi
8:20 PM73 °FSunny.3 mph53%29.95 "Hg10 mi
7:50 PM73 °FSunny.3 mph50%29.95 "Hg10 mi
7:20 PM77 °FSunny.3 mph42%29.95 "Hg10 mi
6:50 PM77 °FPassing clouds.5 mph44%29.95 "HgN/A
6:20 PM79 °FSunny.3 mph32%29.95 "Hg10 mi
Weather by CustomWeather, © 2014

See weather overviewHow to use our weather pages